Find Starlink 37675

NORAD ID: 100299 Int'l Des: 2026-183 Owner: SPXS Country: US Constellation: starlink operational

Current View

Loading 3D Globe...

About Starlink 37675

Starlink 37675 (NORAD 100299) is a starlink constellation satellite launched Aug 11, 2026 by SPXS of US. with a mass of 575.00 kg.

Upcoming Passes

Passes for default location (London). Set your location on the main map for personalized predictions.

Altitude History

Loading altitude history...

Two-Line Element Set

1 A0299U 26183AD 26262.70406271 .00049124 00000-0 88513-3 0 9993
2 A0299 53.1590 261.6504 0001107 76.3829 283.7304 15.49329370 6177
Epoch: Sep 19, 2026 • Age: 24 hours

Current Status

Altitude 422.8 km
Apogee / Perigee N/A
Velocity 7.66 km/s
Sub-Earth Point 46.60°N, 136.16°E
Launch Date Aug 11, 2026
Age 0.1 years
Type internet

Technical Details

Classification Payload
Mass 575.00 kg
Dry Mass 530.00 kg
Length 0.30 m
Span 29.00 m
Shape ? Box + pan
Manufacturer SPXS
Bus Type Starlink V2MO
Phase Status In Orbit
Owner/State SPXS/US

Most Searched